カタログに戻る

STARLINK-3707

運用中通信VLEO
NORAD 52133·PAYLOAD·🇺🇸 United States

打ち上げ Mar 19, 2022 から Cape Canaveral Space Force Station

Loading…

次のパス (今後24時間)

TLE

最新Source: CelesTrak SupGP

元期: Sep 15, 2026, 01:28 UTC

1 52133C 22029AX  26258.06159722  .00018831  00000+0  55642-3 0  2587
2 52133  53.1576 292.8403 0001189  94.5324 298.9616 15.34377548    16

AllMySatでSTARLINK-3707をリアルタイム追跡

Download on the App Store